| time (UTC) | temp C | wind direction | speed KPH | gust KPH | rain 1hr cm | rain 24hr cm | rain mn cm | humidity % | barometer mb |
| 20260508064515 | 6 | 25 | 6.4 | 9.7 | 0.00 | 0.00 | 0.00 | 33 | 1013.4 |
| 20260508063012 | 7 | 27 | 9.7 | 14.5 | 0.00 | 0.00 | 0.00 | 33 | 1013.3 |
| 20260508061512 | 7 | 26 | 9.7 | 12.9 | 0.00 | 0.00 | 0.00 | 32 | 1013.2 |
| 20260508060008 | 7 | 27 | 9.7 | 12.9 | 0.00 | 0.00 | 0.00 | 30 | 1013.2 |
| 20260508054508 | 10 | 14 | 0.0 | 0.0 | 0.00 | 0.00 | 0.00 | 25 | 1013.2 |
| 20260508053008 | 9 | 14 | 1.6 | 8.0 | 0.00 | 0.00 | 0.00 | 25 | 1013.1 |
| 20260508051507 | 9 | 309 | 9.7 | 14.5 | 0.00 | 0.00 | 0.00 | 26 | 1013.2 |
| 20260508050007 | 9 | 18 | 3.2 | 12.9 | 0.00 | 0.00 | 0.00 | 27 | 1013.3 |
| 20260508044508 | 9 | 18 | 14.5 | 17.7 | 0.00 | 0.00 | 0.00 | 28 | 1013.3 |
| 20260508043007 | 10 | 16 | 9.7 | 12.9 | 0.00 | 0.00 | 0.00 | 28 | 1013.4 |
| 20260508041507 | 10 | 14 | 11.3 | 16.1 | 0.00 | 0.00 | 0.00 | 27 | 1013.4 |
| 20260508040008 | 10 | 45 | 8.0 | 14.5 | 0.00 | 0.00 | 0.00 | 27 | 1013.3 |
| 20260508034504 | 12 | 35 | 9.7 | 16.1 | 0.00 | 0.00 | 0.00 | 24 | 1013.3 |
| 20260508033015 | 14 | 308 | 4.8 | 17.7 | 0.00 | 0.00 | 0.00 | 16 | 1013.2 |
| 20260508031504 | 14 | 325 | 11.3 | 20.9 | 0.00 | 0.00 | 0.00 | 15 | 1013.0 |
| 20260508030005 | 13 | 337 | 9.7 | 16.1 | 0.00 | 0.00 | 0.00 | 17 | 1012.9 |
| 20260508024502 | 13 | 335 | 6.4 | 9.7 | 0.00 | 0.00 | 0.00 | 16 | 1012.7 |
| 20260508023002 | 14 | 263 | 9.7 | 14.5 | 0.00 | 0.00 | 0.00 | 15 | 1012.5 |
| 20260508021501 | 15 | 261 | 8.0 | 20.9 | 0.00 | 0.00 | 0.00 | 15 | 1012.3 |
| 20260508020002 | 16 | 241 | 19.3 | 25.7 | 0.00 | 0.00 | 0.00 | 14 | 1012.0 |
| 20260508014602 | 17 | 249 | 19.3 | 32.2 | 0.00 | 0.00 | 0.00 | 13 | 1011.9 |
| 20260508013110 | 18 | 246 | 19.3 | 29.0 | 0.00 | 0.00 | 0.00 | 14 | 1011.8 |
| 20260508011603 | 18 | 38 | 12.9 | 20.9 | 0.00 | 0.00 | 0.00 | 14 | 1011.7 |
| 20260508011502 | 18 | 39 | 12.9 | 20.9 | 0.00 | 0.00 | 0.00 | 14 | 1011.7 |
| 20260508010057 | 18 | 154 | 3.2 | 11.3 | 0.00 | 0.00 | 0.00 | 14 | 1012.1 |
| 20260508004559 | 18 | 45 | 4.8 | 14.5 | 0.00 | 0.00 | 0.00 | 14 | 1012.1 |
| 20260508003103 | 18 | 114 | 12.9 | 19.3 | 0.00 | 0.00 | 0.00 | 14 | 1012.2 |
| 20260508001550 | 18 | 66 | 12.9 | 17.7 | 0.00 | 0.00 | 0.00 | 14 | 1012.6 |
| 20260508000047 | 18 | 130 | 9.7 | 29.0 | 0.00 | 0.00 | 0.00 | 16 | 1012.8 |
| 20260507234546 | 18 | 132 | 6.4 | 16.1 | 0.00 | 0.00 | 0.00 | 16 | 1013.0 |
| 20260507233042 | 18 | 9 | 3.2 | 16.1 | 0.00 | 0.00 | 0.00 | 15 | 1013.3 |
| 20260507231550 | 18 | 201 | 6.4 | 14.5 | 0.00 | 0.00 | 0.00 | 16 | 1013.6 |
| 20260507230040 | 18 | 166 | 8.0 | 20.9 | 0.00 | 0.00 | 0.00 | 15 | 1013.9 |
| 20260507224550 | 17 | 145 | 9.7 | 19.3 | 0.00 | 0.00 | 0.00 | 16 | 1014.2 |
| 20260507223041 | 18 | 207 | 12.9 | 27.4 | 0.00 | 0.00 | 0.00 | 16 | 1014.5 |
| 20260507221537 | 18 | 269 | 12.9 | 20.9 | 0.00 | 0.00 | 0.00 | 17 | 1014.6 |
| 20260507220032 | 17 | 292 | 9.7 | 29.0 | 0.00 | 0.00 | 0.00 | 17 | 1015.0 |
| 20260507214532 | 17 | 235 | 9.7 | 22.5 | 0.00 | 0.23 | 0.00 | 19 | 1015.4 |
| 20260507213030 | 17 | 182 | 14.5 | 22.5 | 0.00 | 0.23 | 0.00 | 18 | 1015.8 |
| 20260507211521 | 17 | 179 | 3.2 | 32.2 | 0.00 | 0.23 | 0.00 | 18 | 1016.2 |
| 20260507210041 | 16 | 132 | 8.0 | 19.3 | 0.00 | 0.23 | 0.00 | 19 | 1016.5 |
| 20260507204514 | 16 | 295 | 8.0 | 14.5 | 0.00 | 0.23 | 0.00 | 19 | 1016.9 |
| 20260507203018 | 16 | 250 | 12.9 | 29.0 | 0.00 | 0.23 | 0.00 | 19 | 1017.2 |
| 20260507201516 | 16 | 224 | 9.7 | 20.9 | 0.00 | 0.23 | 0.00 | 18 | 1017.4 |
| 20260507200020 | 16 | 299 | 11.3 | 27.4 | 0.00 | 0.23 | 0.00 | 19 | 1017.6 |
| 20260507194505 | 15 | 305 | 12.9 | 24.1 | 0.00 | 0.25 | 0.00 | 20 | 1017.9 |
| 20260507193010 | 15 | 161 | 8.0 | 22.5 | 0.00 | 0.25 | 0.00 | 19 | 1018.0 |
| 20260507191508 | 15 | 45 | 4.8 | 20.9 | 0.00 | 0.25 | 0.00 | 17 | 1018.4 |
| 20260507190100 | 14 | 265 | 9.7 | 19.3 | 0.00 | 0.25 | 0.00 | 15 | 1018.6 |
| 20260507184556 | 13 | 159 | 4.8 | 11.3 | 0.00 | 0.25 | 0.00 | 15 | 1018.9 |
| 20260507183101 | 13 | 255 | 12.9 | 17.7 | 0.00 | 0.25 | 0.00 | 16 | 1019.1 |
| 20260507181551 | 13 | 4 | 4.8 | 16.1 | 0.00 | 0.25 | 0.00 | 23 | 1019.7 |
| 20260507180049 | 12 | 216 | 8.0 | 14.5 | 0.00 | 0.25 | 0.00 | 23 | 1019.9 |
| 20260507174545 | 12 | 319 | 1.6 | 11.3 | 0.00 | 0.25 | 0.00 | 30 | 1020.1 |
| 20260507173050 | 11 | 118 | 8.0 | 14.5 | 0.00 | 0.25 | 0.00 | 34 | 1020.4 |
| 20260507171541 | 10 | 171 | 3.2 | 12.9 | 0.00 | 0.25 | 0.00 | 37 | 1020.7 |
| 20260507170037 | 10 | 152 | 3.2 | 11.3 | 0.00 | 0.25 | 0.00 | 40 | 1021.0 |
| 20260507164533 | 8 | 295 | 6.4 | 14.5 | 0.00 | 0.25 | 0.00 | 39 | 1021.3 |
| 20260507163035 | 8 | 119 | 1.6 | 11.3 | 0.00 | 0.25 | 0.00 | 42 | 1021.3 |
| 20260507161525 | 7 | 274 | 4.8 | 6.4 | 0.00 | 0.25 | 0.00 | 43 | 1021.7 |
| 20260507160031 | 7 | 80 | 6.4 | 12.9 | 0.00 | 0.25 | 0.00 | 48 | 1021.9 |
| 20260507154519 | 7 | 165 | 3.2 | 8.0 | 0.00 | 0.25 | 0.00 | 50 | 1022.0 |
| 20260507153020 | 6 | 152 | 4.8 | 12.9 | 0.00 | 0.25 | 0.00 | 51 | 1022.2 |
| 20260507151511 | 5 | 267 | 4.8 | 8.0 | 0.00 | 0.25 | 0.00 | 54 | 1022.5 |
| 20260507150007 | 4 | 276 | 0.0 | 8.0 | 0.00 | 0.25 | 0.00 | 62 | 1022.5 |
| 20260507144502 | 3 | 220 | 6.4 | 9.7 | 0.00 | 0.25 | 0.00 | 66 | 1022.4 |
| 20260507143108 | 3 | 291 | 6.4 | 11.3 | 0.00 | 0.25 | 0.00 | 69 | 1022.6 |
| 20260507141610 | 3 | 292 | 3.2 | 11.3 | 0.00 | 0.25 | 0.00 | 70 | 1022.5 |
| 20260507140059 | 2 | 301 | 1.6 | 8.0 | 0.00 | 0.25 | 0.00 | 70 | 1022.5 |
| 20260507134549 | 2 | 276 | 3.2 | 6.4 | 0.00 | 0.25 | 0.00 | 73 | 1022.4 |
| 20260507133046 | 1 | 258 | 0.0 | 0.0 | 0.00 | 0.25 | 0.00 | 80 | 1022.4 |
| 20260507131537 | 0 | 324 | 1.6 | 6.4 | 0.00 | 0.25 | 0.00 | 80 | 1022.4 |
| 20260507130039 | -1 | 16 | 3.2 | 6.4 | 0.00 | 0.25 | 0.00 | 79 | 1022.4 |
| 20260507124531 | -1 | 30 | 3.2 | 6.4 | 0.00 | 0.25 | 0.00 | 80 | 1022.4 |
| 20260507123039 | -2 | 45 | 6.4 | 8.0 | 0.00 | 0.25 | 0.00 | 81 | 1022.2 |
| 20260507121526 | -1 | 21 | 3.2 | 6.4 | 0.00 | 0.25 | 0.00 | 76 | 1022.1 |
| 20260507120026 | -1 | 354 | 4.8 | 11.3 | 0.00 | 0.25 | 0.00 | 81 | 1022.0 |
| 20260507114524 | -1 | 26 | 8.0 | 9.7 | 0.00 | 0.25 | 0.00 | 72 | 1021.9 |
| 20260507113027 | -1 | 349 | 11.3 | 14.5 | 0.00 | 0.25 | 0.00 | 70 | 1021.8 |
| 20260507111519 | 0 | 341 | 6.4 | 12.9 | 0.00 | 0.25 | 0.00 | 69 | 1021.5 |
| 20260507110017 | -1 | 10 | 8.0 | 12.9 | 0.00 | 0.25 | 0.00 | 75 | 1021.5 |
| 20260507104517 | -1 | 334 | 6.4 | 14.5 | 0.00 | 0.25 | 0.00 | 80 | 1021.5 |
| 20260507103014 | -1 | 4 | 11.3 | 14.5 | 0.00 | 0.25 | 0.00 | 77 | 1021.3 |
| 20260507101516 | -1 | 4 | 12.9 | 16.1 | 0.00 | 0.25 | 0.00 | 80 | 1021.1 |
| 20260507100013 | -1 | 15 | 6.4 | 8.0 | 0.00 | 0.25 | 0.00 | 82 | 1021.0 |
| 20260507094508 | -1 | 16 | 6.4 | 12.9 | 0.00 | 0.25 | 0.00 | 83 | 1021.0 |
| 20260507093011 | 0 | 345 | 6.4 | 9.7 | 0.00 | 0.25 | 0.00 | 84 | 1020.9 |
| 20260507091506 | -1 | 35 | 3.2 | 6.4 | 0.00 | 0.25 | 0.00 | 87 | 1020.9 |
| 20260507090005 | -1 | 22 | 6.4 | 9.7 | 0.00 | 0.25 | 0.00 | 86 | 1020.8 |
| 20260507084501 | -1 | 38 | 4.8 | 6.4 | 0.00 | 0.25 | 0.00 | 85 | 1020.6 |
| 20260507083100 | 0 | 38 | 0.0 | 4.8 | 0.00 | 0.25 | 0.00 | 85 | 1020.6 |
| 20260507081559 | 0 | 38 | 0.0 | 6.4 | 0.00 | 0.25 | 0.00 | 86 | 1020.6 |
| 20260507080057 | 0 | 38 | 1.6 | 4.8 | 0.00 | 0.25 | 0.00 | 85 | 1020.4 |
| 20260507074558 | 0 | 58 | 3.2 | 8.0 | 0.00 | 0.25 | 0.00 | 85 | 1020.3 |
| 20260507073053 | 0 | 52 | 4.8 | 8.0 | 0.00 | 0.25 | 0.00 | 83 | 1020.3 |
| 20260507071554 | 0 | 4 | 4.8 | 8.0 | 0.00 | 0.25 | 0.00 | 82 | 1020.1 |
| 20260507070054 | 0 | 4 | 4.8 | 6.4 | 0.00 | 0.25 | 0.00 | 82 | 1019.7 |